Time,TemperatureF,DewpointF,PressureIn,WindDirection,WindDirectionDegrees,WindSpeedMPH,WindSpeedGustMPH,Humidity,HourlyPrecipIn,Conditions,Clouds,dailyrainin,SoftwareType,DateUTC
2013-05-29 00:02:00,66.0,65.0,29.86,SE,130,1.0,3.0,98,0.00,,,1.77,,2013-05-29 05:02:00,
2013-05-29 00:12:00,66.0,65.0,29.86,SE,130,1.0,3.0,98,0.00,,,1.77,,2013-05-29 05:12:00,
2013-05-29 00:22:00,65.0,64.0,29.85,ENE,70,2.0,4.0,98,0.00,,,1.77,,2013-05-29 05:22:00,
2013-05-29 00:32:00,62.0,61.0,29.86,East,101,4.0,7.0,98,0.00,,,1.77,,2013-05-29 05:32:00,
2013-05-29 00:42:00,62.0,61.0,29.86,East,101,4.0,7.0,98,0.00,,,1.77,,2013-05-29 05:42:00,
2013-05-29 00:52:00,61.0,60.0,29.86,ESE,105,3.0,7.0,98,0.00,,,1.77,,2013-05-29 05:52:00,
2013-05-29 01:01:00,60.0,59.0,29.86,SE,135,1.0,5.0,98,0.00,,,1.77,,2013-05-29 06:01:00,
2013-05-29 01:11:00,60.0,59.0,29.86,SE,135,1.0,5.0,98,0.00,,,1.77,,2013-05-29 06:11:00,
2013-05-29 01:21:00,61.0,61.0,29.86,South,188,1.0,5.0,99,0.00,,,1.77,,2013-05-29 06:21:00,
2013-05-29 01:31:00,62.0,62.0,29.85,South,186,0.0,1.0,99,0.00,,,1.77,,2013-05-29 06:31:00,
2013-05-29 01:42:00,62.0,62.0,29.85,South,186,0.0,1.0,99,0.00,,,1.77,,2013-05-29 06:42:00,
2013-05-29 01:52:00,63.0,63.0,29.84,SW,235,2.0,4.0,99,0.00,,,1.77,,2013-05-29 06:52:00,
2013-05-29 02:01:00,63.0,63.0,29.84,WSW,250,1.0,5.0,99,0.00,,,1.77,,2013-05-29 07:01:00,
2013-05-29 02:11:00,63.0,63.0,29.84,WSW,250,1.0,5.0,99,0.00,,,1.77,,2013-05-29 07:11:00,
2013-05-29 02:21:00,62.0,62.0,29.85,WNW,288,2.0,4.0,99,0.00,,,1.77,,2013-05-29 07:21:00,
2013-05-29 02:34:00,61.0,61.0,29.85,WNW,284,0.0,3.0,99,0.00,,,1.77,,2013-05-29 07:34:00,
2013-05-29 02:42:00,61.0,61.0,29.85,WNW,284,0.0,3.0,99,0.00,,,1.77,,2013-05-29 07:42:00,
2013-05-29 02:52:00,62.0,62.0,29.86,WNW,284,1.0,2.0,99,0.00,,,1.77,,2013-05-29 07:52:00,
2013-05-29 03:02:00,60.0,60.0,29.85,WNW,288,0.0,3.0,99,0.00,,,1.77,,2013-05-29 08:02:00,
2013-05-29 03:11:00,60.0,60.0,29.85,WNW,288,0.0,3.0,99,0.00,,,1.77,,2013-05-29 08:11:00,
2013-05-29 03:21:00,60.0,60.0,29.86,WNW,288,0.0,2.0,99,0.00,,,1.77,,2013-05-29 08:21:00,
2013-05-29 03:32:00,61.0,61.0,29.87,WNW,288,0.0,1.0,99,0.00,,,1.77,,2013-05-29 08:32:00,
2013-05-29 03:42:00,61.0,61.0,29.87,WNW,288,0.0,1.0,99,0.00,,,1.77,,2013-05-29 08:42:00,
2013-05-29 03:52:00,61.0,61.0,29.86,WNW,288,0.0,2.0,99,0.00,,,1.77,,2013-05-29 08:52:00,
2013-05-29 04:01:00,62.0,62.0,29.87,WNW,288,0.0,1.0,99,0.00,,,1.77,,2013-05-29 09:01:00,
2013-05-29 04:11:00,62.0,62.0,29.87,WNW,288,0.0,1.0,99,0.00,,,1.77,,2013-05-29 09:11:00,
2013-05-29 04:21:00,61.0,61.0,29.87,WNW,288,0.0,1.0,99,0.00,,,1.63,,2013-05-29 09:21:00,
2013-05-29 04:33:00,62.0,62.0,29.87,WNW,288,0.0,0.0,99,0.00,,,1.63,,2013-05-29 09:33:00,
2013-05-29 04:42:00,62.0,62.0,29.87,WNW,288,0.0,0.0,99,0.00,,,1.63,,2013-05-29 09:42:00,
2013-05-29 04:52:00,63.0,63.0,29.88,WNW,288,0.0,1.0,99,0.00,,,1.63,,2013-05-29 09:52:00,
2013-05-29 05:02:00,63.0,63.0,29.89,WNW,288,1.0,2.0,99,0.00,,,1.63,,2013-05-29 10:02:00,
2013-05-29 05:12:00,63.0,63.0,29.89,WNW,288,1.0,2.0,99,0.00,,,1.63,,2013-05-29 10:12:00,
2013-05-29 05:22:00,63.0,63.0,29.91,WSW,238,1.0,5.0,99,0.00,,,1.58,,2013-05-29 10:22:00,
2013-05-29 05:32:00,64.0,64.0,29.92,West,261,1.0,7.0,99,0.00,,,1.58,,2013-05-29 10:32:00,
2013-05-29 05:42:00,64.0,64.0,29.92,West,261,1.0,7.0,99,0.00,,,1.58,,2013-05-29 10:42:00,
2013-05-29 05:53:00,64.0,64.0,29.91,West,263,0.0,2.0,99,0.00,,,1.58,,2013-05-29 10:53:00,
2013-05-29 06:02:00,64.0,64.0,29.92,West,263,0.0,0.0,99,0.00,,,1.58,,2013-05-29 11:02:00,
2013-05-29 06:12:00,64.0,64.0,29.92,West,263,0.0,0.0,99,0.00,,,1.58,,2013-05-29 11:12:00,
2013-05-29 06:22:00,64.0,64.0,29.93,West,263,0.0,0.0,99,0.00,,,1.57,,2013-05-29 11:22:00,
2013-05-29 06:32:00,64.0,64.0,29.93,West,263,0.0,1.0,99,0.00,,,1.57,,2013-05-29 11:32:00,
2013-05-29 06:42:00,64.0,64.0,29.93,West,263,0.0,1.0,99,0.00,,,1.57,,2013-05-29 11:42:00,
2013-05-29 06:52:00,65.0,65.0,29.94,WSW,251,0.0,3.0,99,0.00,,,1.57,,2013-05-29 11:52:00,
2013-05-29 07:01:00,65.0,65.0,29.94,WSW,248,1.0,4.0,99,0.00,,,1.57,,2013-05-29 12:01:00,
2013-05-29 07:11:00,65.0,65.0,29.94,WSW,248,1.0,4.0,99,0.00,,,1.57,,2013-05-29 12:11:00,
2013-05-29 07:21:00,65.0,65.0,29.94,WSW,242,2.0,5.0,99,0.00,,,1.28,,2013-05-29 12:21:00,
2013-05-29 07:32:00,66.0,66.0,29.94,West,273,2.0,6.0,99,0.00,,,1.28,,2013-05-29 12:32:00,
2013-05-29 07:42:00,66.0,66.0,29.94,West,273,2.0,6.0,99,0.00,,,1.28,,2013-05-29 12:42:00,
2013-05-29 07:52:00,66.0,66.0,29.94,WNW,299,3.0,6.0,99,0.00,,,1.28,,2013-05-29 12:52:00,
2013-05-29 08:02:00,66.0,66.0,29.93,West,274,3.0,9.0,99,0.00,,,1.28,,2013-05-29 13:02:00,
2013-05-29 08:11:00,66.0,66.0,29.93,West,274,3.0,9.0,99,0.00,,,1.28,,2013-05-29 13:11:00,
2013-05-29 08:21:00,66.0,66.0,29.94,WNW,293,2.0,9.0,99,0.00,,,0.07,,2013-05-29 13:21:00,
2013-05-29 08:32:00,66.0,66.0,29.95,NW,310,3.0,6.0,99,0.00,,,0.07,,2013-05-29 13:32:00,
2013-05-29 08:42:00,66.0,66.0,29.95,NW,310,3.0,6.0,99,0.00,,,0.07,,2013-05-29 13:42:00,
2013-05-29 08:53:00,67.0,67.0,29.96,West,269,1.0,8.0,99,0.00,,,0.07,,2013-05-29 13:53:00,
2013-05-29 09:02:00,68.0,68.0,29.98,West,263,3.0,9.0,99,0.00,,,0.07,,2013-05-29 14:02:00,
2013-05-29 09:11:00,68.0,68.0,29.98,West,263,3.0,9.0,99,0.00,,,0.07,,2013-05-29 14:11:00,
2013-05-29 09:21:00,69.0,68.0,29.97,WSW,251,2.0,7.0,96,0.00,,,0.04,,2013-05-29 14:21:00,
2013-05-29 09:32:00,69.0,66.0,29.98,WSW,254,1.0,9.0,90,0.00,,,0.04,,2013-05-29 14:32:00,
2013-05-29 09:41:00,69.0,66.0,29.98,WSW,254,1.0,9.0,90,0.00,,,0.04,,2013-05-29 14:41:00,
2013-05-29 09:52:00,70.0,66.0,29.98,West,261,3.0,12.0,86,0.00,,,0.04,,2013-05-29 14:52:00,
2013-05-29 10:01:00,72.0,67.0,29.98,WNW,285,4.0,14.0,83,0.00,,,0.04,,2013-05-29 15:01:00,
2013-05-29 10:11:00,72.0,65.0,29.98,WSW,240,4.0,10.0,80,0.00,,,0.04,,2013-05-29 15:11:00,
2013-05-29 10:21:00,72.0,65.0,29.98,WSW,240,4.0,10.0,80,0.00,,,0.04,,2013-05-29 15:21:00,
2013-05-29 10:33:00,72.0,63.0,29.98,WSW,254,4.0,13.0,74,0.00,,,0.04,,2013-05-29 15:33:00,
2013-05-29 10:42:00,72.0,63.0,29.98,WSW,254,4.0,13.0,74,0.00,,,0.04,,2013-05-29 15:42:00,
2013-05-29 10:53:00,73.0,63.0,29.98,WSW,255,2.0,13.0,71,0.00,,,0.04,,2013-05-29 15:53:00,
2013-05-29 11:03:00,73.0,62.0,29.98,WSW,248,2.0,12.0,69,0.00,,,0.04,,2013-05-29 16:03:00,
2013-05-29 11:12:00,73.0,62.0,29.98,WSW,248,2.0,12.0,69,0.00,,,0.04,,2013-05-29 16:12:00,
2013-05-29 11:22:00,74.0,63.0,29.98,West,259,3.0,12.0,68,0.00,,,0.04,,2013-05-29 16:22:00,
2013-05-29 11:32:00,75.0,63.0,29.98,SW,231,3.0,7.0,67,0.00,,,0.04,,2013-05-29 16:32:00,
2013-05-29 11:42:00,75.0,63.0,29.98,SW,231,3.0,7.0,67,0.00,,,0.04,,2013-05-29 16:42:00,
2013-05-29 11:52:00,76.0,64.0,29.98,WNW,286,4.0,12.0,67,0.00,,,0.04,,2013-05-29 16:52:00,
2013-05-29 12:02:00,77.0,63.0,29.98,WSW,257,3.0,10.0,61,0.00,,,0.04,,2013-05-29 17:02:00,
2013-05-29 12:12:00,77.0,63.0,29.98,WSW,257,3.0,10.0,61,0.00,,,0.04,,2013-05-29 17:12:00,
2013-05-29 12:22:00,75.0,61.0,29.98,WSW,254,5.0,11.0,61,0.00,,,0.04,,2013-05-29 17:22:00,
2013-05-29 12:32:00,76.0,60.0,29.98,SW,233,5.0,10.0,57,0.00,,,0.04,,2013-05-29 17:32:00,
2013-05-29 12:42:00,76.0,60.0,29.98,SW,233,5.0,10.0,57,0.00,,,0.04,,2013-05-29 17:42:00,
2013-05-29 12:52:00,77.0,62.0,29.98,SW,219,6.0,17.0,60,0.00,,,0.04,,2013-05-29 17:52:00,
2013-05-29 13:01:00,77.0,62.0,29.98,WSW,241,4.0,8.0,60,0.00,,,0.04,,2013-05-29 18:01:00,
2013-05-29 13:13:00,77.0,62.0,29.97,SW,233,3.0,12.0,59,0.00,,,0.04,,2013-05-29 18:13:00,
2013-05-29 13:22:00,77.0,62.0,29.97,SW,233,3.0,12.0,59,0.00,,,0.04,,2013-05-29 18:22:00,
2013-05-29 13:32:00,77.0,62.0,29.97,WNW,286,2.0,12.0,59,0.00,,,0.04,,2013-05-29 18:32:00,
2013-05-29 13:42:00,77.0,62.0,29.97,WNW,286,2.0,12.0,59,0.00,,,0.04,,2013-05-29 18:42:00,
2013-05-29 13:52:00,79.0,63.0,29.97,SSW,205,2.0,14.0,59,0.00,,,0.04,,2013-05-29 18:52:00,
2013-05-29 14:02:00,78.0,62.0,29.97,SW,217,4.0,14.0,59,0.00,,,0.04,,2013-05-29 19:02:00,
2013-05-29 14:11:00,79.0,63.0,29.97,South,177,4.0,14.0,58,0.00,,,0.04,,2013-05-29 19:11:00,
2013-05-29 14:21:00,79.0,63.0,29.97,South,177,4.0,14.0,58,0.00,,,0.04,,2013-05-29 19:21:00,
2013-05-29 14:32:00,79.0,63.0,29.97,West,263,4.0,12.0,58,0.00,,,0.04,,2013-05-29 19:32:00,
2013-05-29 14:44:00,79.0,64.0,29.97,West,264,5.0,13.0,60,0.00,,,0.04,,2013-05-29 19:44:00,
2013-05-29 14:53:00,79.0,64.0,29.97,West,264,5.0,13.0,60,0.00,,,0.04,,2013-05-29 19:53:00,
2013-05-29 15:02:00,80.0,65.0,29.97,SSW,196,3.0,10.0,61,0.00,,,0.04,,2013-05-29 20:02:00,
2013-05-29 15:11:00,80.0,65.0,29.97,SSW,196,3.0,10.0,61,0.00,,,0.04,,2013-05-29 20:11:00,
2013-05-29 15:22:00,79.0,65.0,29.97,SSW,211,4.0,12.0,62,0.00,,,0.04,,2013-05-29 20:22:00,
2013-05-29 15:33:00,80.0,66.0,29.97,SW,222,2.0,14.0,62,0.00,,,0.04,,2013-05-29 20:33:00,
2013-05-29 15:42:00,80.0,66.0,29.97,SW,222,2.0,14.0,62,0.00,,,0.04,,2013-05-29 20:42:00,
2013-05-29 15:52:00,80.0,65.0,29.96,SSW,212,1.0,11.0,61,0.00,,,0.04,,2013-05-29 20:52:00,
2013-05-29 16:02:00,81.0,64.0,29.96,South,188,6.0,14.0,57,0.00,,,0.04,,2013-05-29 21:02:00,
2013-05-29 16:12:00,81.0,64.0,29.96,South,188,6.0,14.0,57,0.00,,,0.04,,2013-05-29 21:12:00,
2013-05-29 16:22:00,80.0,65.0,29.95,SSE,153,1.0,14.0,61,0.00,,,0.00,,2013-05-29 21:22:00,
2013-05-29 16:33:00,82.0,67.0,29.94,SSW,202,1.0,7.0,60,0.00,,,0.00,,2013-05-29 21:33:00,
2013-05-29 16:43:00,82.0,67.0,29.94,SSW,202,1.0,7.0,60,0.00,,,0.00,,2013-05-29 21:43:00,
2013-05-29 16:53:00,81.0,65.0,29.94,West,259,5.0,15.0,58,0.00,,,0.00,,2013-05-29 21:53:00,
2013-05-29 17:03:00,80.0,65.0,29.94,SSE,167,4.0,15.0,61,0.00,,,0.00,,2013-05-29 22:03:00,
2013-05-29 17:12:00,80.0,65.0,29.94,SSE,167,4.0,15.0,61,0.00,,,0.00,,2013-05-29 22:12:00,
2013-05-29 17:23:00,80.0,66.0,29.93,South,175,4.0,12.0,62,0.00,,,0.00,,2013-05-29 22:23:00,
2013-05-29 17:33:00,80.0,67.0,29.93,South,182,4.0,15.0,64,0.00,,,0.00,,2013-05-29 22:33:00,
2013-05-29 17:42:00,80.0,67.0,29.93,SSE,160,3.0,12.0,64,0.00,,,0.00,,2013-05-29 22:42:00,
2013-05-29 17:53:00,80.0,67.0,29.93,SSE,160,3.0,12.0,64,0.00,,,0.00,,2013-05-29 22:53:00,
2013-05-29 18:02:00,78.0,67.0,29.92,South,172,3.0,18.0,68,0.00,,,0.00,,2013-05-29 23:02:00,
2013-05-29 18:12:00,78.0,67.0,29.92,South,172,3.0,18.0,68,0.00,,,0.00,,2013-05-29 23:12:00,
2013-05-29 18:21:00,77.0,66.0,29.92,South,186,3.0,13.0,69,0.00,,,0.00,,2013-05-29 23:21:00,
2013-05-29 18:33:00,77.0,66.0,29.92,SSW,198,5.0,14.0,69,0.00,,,0.00,,2013-05-29 23:33:00,
2013-05-29 18:42:00,76.0,66.0,29.93,South,183,2.0,18.0,71,0.00,,,0.00,,2013-05-29 23:42:00,
2013-05-29 18:53:00,76.0,66.0,29.93,South,183,2.0,18.0,71,0.00,,,0.00,,2013-05-29 23:53:00,
2013-05-29 19:01:00,75.0,65.0,29.94,SE,127,6.0,12.0,72,0.00,,,0.00,,2013-05-30 00:01:00,
2013-05-29 19:11:00,75.0,65.0,29.94,SE,127,6.0,12.0,72,0.00,,,0.00,,2013-05-30 00:11:00,
2013-05-29 19:21:00,74.0,65.0,29.94,SSW,192,2.0,14.0,74,0.00,,,0.00,,2013-05-30 00:21:00,
2013-05-29 19:31:00,73.0,65.0,29.94,ESE,103,3.0,13.0,75,0.00,,,0.00,,2013-05-30 00:31:00,
2013-05-29 19:42:00,73.0,65.0,29.94,ESE,103,3.0,13.0,75,0.00,,,0.00,,2013-05-30 00:42:00,
2013-05-29 19:52:00,72.0,65.0,29.94,ESE,123,2.0,11.0,78,0.00,,,0.00,,2013-05-30 00:52:00,
2013-05-29 20:01:00,72.0,65.0,29.94,ESE,113,1.0,8.0,79,0.00,,,0.00,,2013-05-30 01:01:00,
2013-05-29 20:11:00,72.0,65.0,29.94,ESE,113,1.0,8.0,79,0.00,,,0.00,,2013-05-30 01:11:00,
2013-05-29 20:21:00,71.0,65.0,29.94,SE,133,1.0,7.0,80,0.00,,,0.00,,2013-05-30 01:21:00,
2013-05-29 20:32:00,71.0,65.0,29.94,SSW,208,1.0,6.0,81,0.00,,,0.00,,2013-05-30 01:32:00,
2013-05-29 20:41:00,71.0,65.0,29.94,SSW,208,1.0,6.0,81,0.00,,,0.00,,2013-05-30 01:41:00,
2013-05-29 20:52:00,70.0,64.0,29.93,SE,128,1.0,7.0,82,0.00,,,0.00,,2013-05-30 01:52:00,
2013-05-29 21:01:00,70.0,64.0,29.93,ESE,116,2.0,10.0,82,0.00,,,0.00,,2013-05-30 02:01:00,
2013-05-29 21:11:00,70.0,64.0,29.93,ESE,116,2.0,10.0,82,0.00,,,0.00,,2013-05-30 02:11:00,
2013-05-29 21:21:00,70.0,65.0,29.93,SE,137,2.0,7.0,83,0.00,,,0.00,,2013-05-30 02:21:00,
2013-05-29 21:32:00,70.0,65.0,29.94,SSE,159,0.0,7.0,84,0.00,,,0.00,,2013-05-30 02:32:00,
2013-05-29 21:42:00,70.0,65.0,29.94,SSE,159,0.0,7.0,84,0.00,,,0.00,,2013-05-30 02:42:00,
2013-05-29 21:52:00,70.0,65.0,29.94,SSE,159,0.0,7.0,84,0.00,,,0.00,,2013-05-30 02:52:00,
2013-05-29 22:01:00,69.0,64.0,29.94,SSW,200,0.0,4.0,85,0.00,,,0.00,,2013-05-30 03:01:00,
2013-05-29 22:11:00,70.0,65.0,29.95,SSW,197,2.0,5.0,84,0.00,,,0.00,,2013-05-30 03:11:00,
2013-05-29 22:21:00,70.0,65.0,29.95,SSW,197,2.0,5.0,84,0.00,,,0.00,,2013-05-30 03:21:00,
2013-05-29 22:33:00,70.0,65.0,29.95,SW,215,0.0,4.0,84,0.00,,,0.00,,2013-05-30 03:33:00,
2013-05-29 22:43:00,70.0,65.0,29.95,SW,215,0.0,4.0,84,0.00,,,0.00,,2013-05-30 03:43:00,
2013-05-29 22:53:00,70.0,65.0,29.96,SSW,201,2.0,6.0,84,0.00,,,0.00,,2013-05-30 03:53:00,
2013-05-29 23:02:00,71.0,66.0,29.96,SW,220,3.0,7.0,83,0.00,,,0.00,,2013-05-30 04:02:00,
2013-05-29 23:12:00,71.0,66.0,29.96,SW,220,3.0,7.0,83,0.00,,,0.00,,2013-05-30 04:12:00,
2013-05-29 23:23:00,71.0,65.0,29.96,SSW,213,2.0,8.0,82,0.00,,,0.00,,2013-05-30 04:23:00,
2013-05-29 23:33:00,71.0,65.0,29.96,SW,226,3.0,7.0,82,0.00,,,0.00,,2013-05-30 04:33:00,
2013-05-29 23:42:00,71.0,65.0,29.96,SW,226,3.0,7.0,82,0.00,,,0.00,,2013-05-30 04:42:00,
2013-05-29 23:53:00,72.0,65.0,29.96,SSW,207,3.0,10.0,80,0.00,,,0.00,,2013-05-30 04:53:00,